Starlink 5649

operational
NORAD ID: 55354 Int'l Des: 2023-013 Owner: SPXS Country: US Constellation: starlink
LEOCIRCULAR

Über Starlink 5649

Beschreibung wird geladen...

Live-Position

3D-Globus wird geladen...

Nächste Überflüge

Höhenverlauf

Altitude vs Time

uPlot chart will show altitude changes over time

Zweizeiliger Elementsatz

1 55354U 23013Z 26037.19319058 .00001799 00000-0 14819-3 0 9997
2 55354 43.0037 111.2929 0001247 268.9755 91.0945 15.02536809166978
Epoch: 6. Feb. 2026 • Age: 9 hours

Aktueller Status

Höhe 569.7 km
Geschwindigkeit 7.58 km/s
Subsatellitenpunkt -38.40°S, 4.74°E
Startdatum 26. Jan. 2023
Alter 3 years
Typ internet

Technische Details

Klassifizierung Payload
Masse 305.00 kg
Trockenmasse 290.00 kg
Gesamtmasse 305.00 kg
Länge 0.20 m
Durchmesser 2.80 m
Spannweite 9.00 m
Form Box + pan
Hersteller SPXS
Bus-Typ Starlink
Phasenstatus In Orbit
Besitzer/Staat SPXS/US

Große Konstellationen

Loading constellations...